�N����,����,�~����,�C��,���x,�C��,����,���ϕ���,�ő�u�ԕ���,�ő厞����,���˗�,�I�_���x,�n�����x,�ő啗���N��,DTYPE
"17/08/11","00:10",0.0,25.0,93.3,995.1,325.4,0.5,0.9,334.3,0.00,23.9,26.9,"00:08:40",1
"17/08/11","00:20",0.0,25.1,93.5,995.3,0.2,0.7,1.6,31.5,0.00,24.0,27.1,"00:17:28",1
"17/08/11","00:30",0.0,25.0,93.5,995.6,337.9,0.8,1.4,342.1,0.00,23.9,27.1,"00:27:04",1
"17/08/11","00:40",0.0,25.0,93.7,995.3,316.9,0.6,1.0,329.6,0.00,24.0,26.9,"00:30:32",1
"17/08/11","00:50",0.0,25.0,93.7,995.3,327.2,0.6,1.4,317.4,0.00,24.0,27.0,"00:46:56",1
"17/08/11","01:00",0.0,25.0,93.9,995.3,329.1,0.7,1.0,337.2,0.00,24.0,26.9,"00:51:12",1
"17/08/11","01:10",0.0,24.9,93.8,995.6,294.9,0.6,1.2,312.8,0.00,23.9,26.8,"01:04:00",1
"17/08/11","01:20",0.0,24.9,94.0,995.3,277.0,0.6,1.4,334.7,0.00,23.9,27.0,"01:13:12",1
"17/08/11","01:30",0.0,24.8,93.9,995.3,276.2,0.5,0.9,312.0,0.00,23.8,26.8,"01:26:08",1
"17/08/11","01:40",0.0,24.8,94.0,995.6,302.1,0.6,1.0,322.4,0.00,23.8,26.7,"01:38:56",1
"17/08/11","01:50",0.0,24.8,94.0,995.6,335.0,0.7,1.4,342.4,0.00,23.8,26.7,"01:45:20",1
"17/08/11","02:00",0.0,24.8,94.0,995.3,345.1,0.7,1.4,353.1,0.00,23.8,26.7,"01:51:12",1
"17/08/11","02:10",0.0,24.7,94.0,995.3,306.4,0.5,1.0,316.2,0.00,23.7,27.0,"02:01:20",1
"17/08/11","02:20",0.0,24.6,94.0,995.3,272.5,0.3,0.6,245.0,0.00,23.6,26.7,"02:15:04",1
"17/08/11","02:30",0.0,24.6,94.1,995.6,264.7,0.5,0.8,315.0,0.00,23.6,26.7,"02:20:08",1
"17/08/11","02:40",0.0,24.5,94.1,995.6,285.7,0.3,0.6,344.0,0.00,23.5,26.7,"02:30:24",1
"17/08/11","02:50",0.0,24.5,94.1,995.6,308.3,0.7,1.2,304.6,0.00,23.5,26.7,"02:49:12",1
"17/08/11","03:00",0.0,24.4,94.2,996.0,286.3,0.7,1.4,336.5,0.00,23.4,26.5,"02:50:40",1
"17/08/11","03:10",0.0,24.5,94.3,996.0,307.6,0.6,1.2,317.6,0.00,23.6,26.7,"03:00:02",1
"17/08/11","03:20",0.0,24.5,94.3,996.3,332.6,1.0,1.9,324.4,0.00,23.6,26.6,"03:12:40",1
"17/08/11","03:30",0.0,24.5,94.1,996.3,336.6,1.2,2.9,334.3,0.00,23.5,26.6,"03:26:56",1
"17/08/11","03:40",0.0,24.5,94.0,995.8,333.7,1.0,1.8,339.1,0.00,23.5,26.5,"03:37:52",1
"17/08/11","03:50",0.0,24.4,94.0,996.3,320.9,0.7,1.6,345.1,0.00,23.4,26.4,"03:47:12",1
"17/08/11","04:00",0.0,24.3,94.0,995.8,316.2,1.2,1.9,325.5,0.00,23.3,26.4,"03:54:24",1
"17/08/11","04:10",0.0,24.3,94.0,996.0,340.1,1.1,2.1,337.6,0.00,23.3,26.4,"04:00:56",1
"17/08/11","04:20",0.0,24.2,94.0,996.3,306.3,0.6,1.0,324.0,0.00,23.2,26.4,"04:13:12",1
"17/08/11","04:30",0.0,24.1,94.0,996.0,278.2,0.5,0.6,288.6,0.00,23.1,26.4,"04:20:32",1
"17/08/11","04:40",0.0,24.0,94.2,996.0,312.9,0.8,1.2,313.3,0.00,23.0,26.2,"04:37:52",1
"17/08/11","04:50",0.0,23.9,94.4,996.3,310.8,1.1,1.6,320.1,0.00,23.0,26.2,"04:45:28",1
"17/08/11","05:00",0.0,23.8,94.5,996.5,293.3,0.7,1.2,322.2,0.00,22.9,26.2,"04:59:04",1
"17/08/11","05:10",0.0,23.8,94.6,996.5,320.5,0.8,1.2,315.3,0.00,22.9,26.2,"05:06:52",1
"17/08/11","05:20",0.0,23.9,94.8,996.5,320.6,1.2,3.2,328.0,0.00,23.1,26.2,"05:18:32",1
"17/08/11","05:30",0.0,24.1,94.6,996.5,327.6,2.0,3.2,342.8,0.00,23.2,26.2,"05:23:28",1
"17/08/11","05:40",0.0,24.3,94.3,996.5,324.7,1.7,3.5,322.8,0.00,23.4,26.2,"05:34:56",1
"17/08/11","05:50",0.0,24.4,94.1,996.7,313.4,1.1,2.6,341.6,0.00,23.4,26.1,"05:43:36",1
"17/08/11","06:00",0.0,24.4,93.8,996.7,273.7,0.2,0.9,310.8,0.00,23.4,26.2,"05:59:04",1
"17/08/11","06:10",0.0,24.5,94.0,997.0,332.1,0.5,1.3,344.1,0.00,23.5,26.1,"06:00:24",1
"17/08/11","06:20",0.0,24.5,94.1,997.0,279.8,0.3,0.8,262.9,0.00,23.5,26.0,"06:19:12",1
"17/08/11","06:30",0.0,24.6,93.9,997.0,296.0,0.6,1.1,308.9,0.00,23.6,25.9,"06:27:04",1
"17/08/11","06:40",0.0,24.6,94.0,997.2,345.9,0.8,1.4,359.3,0.00,23.6,26.1,"06:37:20",1
"17/08/11","06:50",0.0,24.8,94.1,996.7,341.1,0.7,1.3,339.4,0.01,23.8,26.2,"06:42:56",1
"17/08/11","07:00",0.0,24.9,93.8,997.2,326.3,0.6,1.1,341.5,0.01,23.9,26.1,"06:56:48",1
"17/08/11","07:10",0.0,24.9,93.7,996.7,351.7,0.7,1.3,354.7,0.02,23.9,26.2,"07:03:44",1
"17/08/11","07:20",0.0,25.0,93.2,996.7,351.6,0.7,1.8,348.1,0.02,23.9,26.1,"07:10:24",1
"17/08/11","07:30",0.0,25.3,93.0,997.2,291.1,0.6,1.0,328.2,0.04,24.1,26.2,"07:20:32",1
"17/08/11","07:40",0.0,25.5,92.4,997.2,306.2,0.6,1.4,328.4,0.03,24.2,26.1,"07:36:32",1
"17/08/11","07:50",0.0,25.7,92.2,997.2,306.7,0.5,1.1,335.9,0.03,24.4,26.2,"07:46:56",1
"17/08/11","08:00",0.0,25.9,91.6,997.4,330.9,0.3,1.0,342.2,0.05,24.5,26.2,"07:52:40",1
"17/08/11","08:10",0.0,26.2,91.3,997.4,318.5,0.2,0.6,321.4,0.04,24.7,26.2,"08:00:08",1
"17/08/11","08:20",0.0,26.4,90.1,997.0,221.9,0.1,0.6,252.7,0.05,24.7,26.3,"08:10:40",1
"17/08/11","08:30",0.0,26.5,89.4,997.0,318.7,0.5,1.1,339.1,0.05,24.7,26.3,"08:24:24",1
"17/08/11","08:40",0.0,26.6,89.3,997.0,355.0,0.3,1.3,341.0,0.02,24.7,26.3,"08:32:24",1
"17/08/11","08:50",0.0,26.6,88.6,997.0,339.9,0.1,0.5,79.5,0.05,24.6,26.7,"08:42:32",1
"17/08/11","09:00",0.0,26.7,87.9,997.0,322.6,0.8,1.4,327.9,0.08,24.6,26.5,"08:53:04",1
"17/08/11","09:10",0.0,27.1,86.6,997.2,333.3,0.7,1.6,342.3,0.12,24.7,26.5,"09:06:24",1
"17/08/11","09:20",0.0,27.4,86.5,996.7,327.8,0.7,1.2,345.2,0.07,25.0,26.4,"09:10:24",1
"17/08/11","09:30",0.0,27.4,86.0,997.0,330.0,0.6,1.2,333.2,0.04,24.9,26.4,"09:24:48",1
"17/08/11","09:40",0.0,27.2,86.3,997.2,349.5,0.7,1.6,12.3,0.09,24.8,26.7,"09:36:40",1
"17/08/11","09:50",0.0,27.4,85.3,996.7,346.4,0.3,1.0,346.5,0.11,24.8,26.5,"09:45:04",1
"17/08/11","10:00",0.0,27.7,82.7,996.7,209.9,0.3,1.0,226.4,0.13,24.5,26.6,"09:57:52",1
"17/08/11","10:10",0.0,28.7,78.3,996.7,222.9,0.1,0.6,294.7,0.21,24.6,26.8,"10:06:24",1
"17/08/11","10:20",0.0,29.4,73.8,996.5,115.5,0.5,1.0,138.4,0.30,24.3,27.0,"10:18:48",1
"17/08/11","10:30",0.0,29.9,74.6,997.2,135.5,0.5,1.1,96.3,0.30,24.9,27.2,"10:27:28",1
"17/08/11","10:40",0.0,29.8,75.0,997.4,147.6,0.7,1.6,124.2,0.25,24.9,27.2,"10:36:48",1
"17/08/11","10:50",0.0,30.2,71.4,997.9,138.3,0.5,1.6,114.5,0.29,24.5,27.4,"10:45:44",1
"17/08/11","11:00",0.0,30.2,71.6,997.9,190.4,1.0,2.1,176.4,0.33,24.5,27.5,"10:59:28",1
"17/08/11","11:10",0.0,30.5,72.5,998.2,30.6,0.5,1.9,352.6,0.28,25.0,27.6,"11:03:52",1
"17/08/11","11:20",0.0,31.0,71.2,998.2,26.5,0.7,1.8,10.9,0.35,25.2,27.8,"11:18:24",1
"17/08/11","11:30",0.0,31.3,70.4,997.9,7.6,0.8,1.7,344.0,0.33,25.3,28.0,"11:22:16",1
"17/08/11","11:40",0.0,32.3,68.6,998.2,26.0,0.6,1.7,333.1,0.61,25.8,28.2,"11:34:24",1
"17/08/11","11:50",0.0,31.0,70.8,998.2,7.1,1.0,2.2,346.2,0.22,25.1,28.2,"11:46:24",1
"17/08/11","12:00",0.0,30.2,74.1,997.4,352.9,0.8,1.4,336.9,0.09,25.1,28.4,"11:52:00",1
"17/08/11","12:10",0.0,30.3,76.7,997.0,355.1,0.6,1.3,345.7,0.06,25.8,28.2,"12:04:48",1
"17/08/11","12:20",5.2,29.6,77.4,995.8,5.7,0.7,1.4,355.8,0.05,25.3,28.4,"12:14:56",1
"17/08/11","12:30",0.0,29.0,84.1,995.1,28.6,0.5,1.1,27.5,0.13,26.1,28.4,"12:20:40",1
"17/08/11","12:40",0.0,29.1,86.2,994.8,331.4,0.6,1.4,343.9,0.15,26.6,28.2,"12:32:08",1
"17/08/11","12:50",0.2,29.2,85.3,994.4,309.2,0.2,1.1,318.1,0.09,26.5,28.5,"12:49:04",1
"17/08/11","13:00",0.2,29.2,85.3,994.6,283.1,0.5,1.7,351.6,0.07,26.5,28.2,"12:51:28",1
"17/08/11","13:10",0.0,30.2,83.1,994.6,246.8,0.2,0.6,219.2,0.31,27.0,28.4,"13:03:36",1
"17/08/11","13:20",0.0,30.7,80.1,994.4,265.2,0.5,1.4,353.9,0.28,26.9,28.4,"13:19:44",1
"17/08/11","13:30",0.0,30.7,79.2,995.1,22.9,0.6,1.4,14.7,0.21,26.7,28.7,"13:27:52",1
"17/08/11","13:40",0.0,32.1,75.9,995.3,82.3,0.6,1.2,111.8,0.46,27.3,28.5,"13:38:32",1
"17/08/11","13:50",0.0,32.0,72.3,995.8,52.0,0.7,1.4,110.0,0.32,26.4,28.6,"13:41:20",1
"17/08/11","14:00",0.0,31.6,72.1,996.5,43.1,1.0,1.7,53.8,0.16,26.0,29.0,"13:52:08",1
"17/08/11","14:10",0.0,33.0,70.3,996.0,127.0,0.6,1.4,198.9,0.41,26.9,29.0,"14:09:44",1
"17/08/11","14:20",0.0,34.3,64.2,996.7,201.1,0.7,2.0,221.4,0.55,26.6,29.1,"14:15:44",1
"17/08/11","14:30",0.0,34.3,62.6,997.4,240.6,1.1,3.3,188.4,0.52,26.2,29.2,"14:24:16",1
"17/08/11","14:40",0.0,33.8,64.7,997.0,211.7,1.6,3.2,222.3,0.36,26.3,29.5,"14:34:16",1
"17/08/11","14:50",0.0,34.9,57.7,997.0,220.9,1.1,3.1,226.5,0.48,25.4,29.6,"14:43:28",1
"17/08/11","15:00",0.0,35.0,57.7,997.2,332.9,0.8,2.7,330.4,0.44,25.4,29.6,"14:58:40",1
"17/08/11","15:10",0.0,35.0,54.3,997.2,249.8,0.8,2.7,205.9,0.42,24.4,29.7,"15:00:48",1
"17/08/11","15:20",0.0,35.2,53.1,997.2,324.2,1.0,2.6,351.1,0.40,24.2,29.9,"15:10:08",1
"17/08/11","15:30",0.0,34.8,52.6,997.0,332.0,1.5,4.3,346.4,0.38,23.7,29.9,"15:29:36",1
"17/08/11","15:40",0.0,35.0,50.2,996.7,317.4,1.2,3.9,343.3,0.37,23.1,29.9,"15:36:56",1
"17/08/11","15:50",0.0,35.1,49.3,996.5,336.1,1.3,3.9,340.3,0.34,22.9,29.8,"15:43:44",1
"17/08/11","16:00",0.0,35.5,49.5,995.8,339.3,1.5,3.3,8.6,0.32,23.4,30.0,"15:54:00",1
"17/08/11","16:10",0.0,35.5,47.1,996.0,271.3,1.1,2.6,302.6,0.30,22.5,30.2,"16:08:24",1
"17/08/11","16:20",0.0,35.7,49.0,996.0,272.7,1.0,2.8,225.2,0.27,23.4,30.2,"16:14:24",1
"17/08/11","16:30",0.0,35.6,47.5,996.3,327.8,1.1,4.4,345.6,0.25,22.8,30.2,"16:21:44",1
"17/08/11","16:40",0.0,35.5,46.4,996.0,269.6,1.1,3.4,220.6,0.22,22.3,30.1,"16:39:44",1
"17/08/11","16:50",0.0,34.9,45.2,996.0,232.8,1.7,3.6,226.6,0.20,21.3,30.0,"16:43:28",1
"17/08/11","17:00",0.0,35.0,48.3,996.3,230.4,0.8,2.0,226.1,0.17,22.5,30.1,"16:53:36",1
"17/08/11","17:10",0.0,34.7,48.0,996.3,235.9,1.0,2.9,223.5,0.15,22.1,29.9,"17:02:40",1
"17/08/11","17:20",0.0,34.8,46.4,995.8,243.9,0.7,2.0,308.7,0.13,21.7,29.9,"17:12:00",1
"17/08/11","17:30",0.0,34.7,49.0,996.0,246.1,0.6,2.4,225.3,0.11,22.5,30.1,"17:24:08",1
"17/08/11","17:40",0.0,34.5,51.1,996.5,279.3,0.7,2.1,2.0,0.09,23.0,29.8,"17:37:12",1
"17/08/11","17:50",0.0,33.8,53.5,996.0,320.9,0.8,2.4,339.9,0.06,23.1,29.6,"17:40:16",1
"17/08/11","18:00",0.0,32.8,55.5,995.6,313.6,0.7,1.7,341.7,0.02,22.8,29.6,"17:53:20",1
"17/08/11","18:10",0.0,32.0,59.8,995.8,347.8,1.0,2.5,342.0,0.02,23.2,29.6,"18:02:24",1
"17/08/11","18:20",0.0,31.3,64.9,995.1,341.1,0.6,1.7,347.8,0.02,23.9,29.5,"18:18:56",1
"17/08/11","18:30",0.0,30.5,66.9,994.8,252.7,0.5,1.2,233.3,0.01,23.7,29.5,"18:27:52",1
"17/08/11","18:40",0.0,29.9,68.4,994.8,237.0,0.5,1.3,223.5,0.00,23.5,29.7,"18:38:24",1
"17/08/11","18:50",0.0,29.6,71.1,994.8,321.5,0.3,1.0,326.0,0.00,23.8,29.4,"18:44:24",1
"17/08/11","19:00",0.0,29.2,71.9,994.6,331.2,1.0,3.1,344.2,0.00,23.6,29.4,"18:57:44",1
"17/08/11","19:10",0.0,29.0,72.6,994.6,336.4,1.3,2.9,347.2,0.00,23.6,29.3,"19:04:00",1
"17/08/11","19:20",0.0,28.9,72.9,994.6,287.9,0.6,2.5,318.9,0.00,23.6,29.3,"19:10:24",1
"17/08/11","19:30",0.0,28.7,73.9,994.8,267.6,0.5,1.1,305.4,0.00,23.6,29.1,"19:23:28",1
"17/08/11","19:40",0.0,28.5,75.3,995.3,274.2,0.3,0.9,353.5,0.00,23.7,28.9,"19:30:02",1
"17/08/11","19:50",0.0,28.3,76.0,995.3,332.7,1.1,2.1,325.1,0.00,23.7,29.0,"19:46:32",1
"17/08/11","20:00",0.0,28.3,76.9,995.1,329.7,1.2,2.8,328.7,0.00,23.9,28.8,"19:58:48",1
"17/08/11","20:10",0.0,28.2,77.3,995.3,267.3,0.7,2.2,347.8,0.00,23.9,28.6,"20:00:40",1
"17/08/11","20:20",0.0,28.2,76.8,995.6,261.4,1.0,1.8,227.4,0.00,23.8,28.7,"20:10:08",1
"17/08/11","20:30",0.0,28.2,77.4,995.6,299.4,0.8,2.6,327.3,0.00,23.9,28.7,"20:28:56",1
"17/08/11","20:40",0.0,27.9,78.1,995.8,322.3,1.1,1.8,320.3,0.00,23.8,28.6,"20:34:08",1
"17/08/11","20:50",0.0,27.8,78.6,995.8,321.1,1.3,2.5,323.4,0.00,23.8,28.6,"20:44:40",1
"17/08/11","21:00",0.0,27.8,79.1,996.5,341.9,0.7,2.1,304.2,0.00,23.9,28.4,"20:57:20",1
"17/08/11","21:10",0.0,27.8,79.4,996.3,296.8,0.5,1.1,328.1,0.00,23.9,28.3,"21:06:32",1
"17/08/11","21:20",0.0,27.7,79.9,996.7,290.8,0.3,0.9,280.9,0.00,24.0,28.3,"21:10:08",1
"17/08/11","21:30",0.0,27.6,81.1,996.3,86.0,0.3,1.0,255.9,0.00,24.1,28.2,"21:28:32",1
"17/08/11","21:40",0.0,27.6,81.9,996.5,335.1,0.6,1.1,330.5,0.00,24.3,28.2,"21:33:36",1
"17/08/11","21:50",0.0,27.7,81.8,997.0,329.4,1.1,1.9,293.9,0.00,24.3,28.2,"21:49:12",1
"17/08/11","22:00",0.0,28.0,81.0,997.2,322.0,1.1,2.5,329.2,0.00,24.5,28.2,"21:52:24",1
"17/08/11","22:10",0.0,28.0,80.9,997.0,335.4,1.1,2.7,348.4,0.00,24.5,28.2,"22:02:40",1
"17/08/11","22:20",0.0,27.9,81.0,996.5,310.5,0.8,1.9,353.3,0.00,24.4,27.9,"22:13:20",1
"17/08/11","22:30",0.0,27.9,81.1,997.4,308.2,1.0,2.1,338.2,0.00,24.4,28.0,"22:21:52",1
"17/08/11","22:40",0.0,27.9,81.7,997.2,295.4,0.8,1.6,347.3,0.00,24.5,27.9,"22:33:52",1
"17/08/11","22:50",0.0,27.8,81.9,997.0,321.8,1.0,2.4,328.8,0.00,24.5,28.0,"22:43:04",1
"17/08/11","23:00",0.0,27.7,82.6,997.2,309.3,0.8,1.2,337.4,0.00,24.5,27.9,"22:56:32",1
"17/08/11","23:10",0.0,27.5,83.3,997.7,340.6,1.0,1.9,342.8,0.00,24.5,27.8,"23:07:12",1
"17/08/11","23:20",0.0,27.3,83.9,997.9,321.2,0.8,2.2,336.3,0.00,24.4,27.8,"23:13:12",1
"17/08/11","23:30",0.0,27.2,84.1,997.4,320.0,1.1,2.4,352.4,0.00,24.3,27.6,"23:25:20",1
"17/08/11","23:40",0.0,27.1,83.9,997.9,325.7,1.2,2.1,336.6,0.00,24.2,27.7,"23:38:48",1
"17/08/11","23:50",0.0,27.0,84.0,997.9,283.9,0.8,1.7,310.0,0.00,24.1,27.6,"23:42:32",1
"17/08/11","24:00",0.0,26.9,84.1,997.7,316.9,1.2,2.9,339.5,0.00,24.0,27.7,"23:53:44",1
